Time,TemperatureF,DewpointF,PressureIn,WindDirection,WindDirectionDegrees,WindSpeedMPH,WindSpeedGustMPH,Humidity,HourlyPrecipIn,Conditions,Clouds,dailyrainin,SolarRadiationWatts/m^2,SoftwareType,DateUTC
2013-06-13 00:22:00,62.0,47.0,-100.00,ESE,109,17.0,33.0,58,0.00,,,0.00,0.000000,,2013-06-13 10:22:00,
2013-06-13 00:33:00,62.0,47.0,-100.00,ESE,109,17.0,33.0,58,0.00,,,0.00,0.000000,,2013-06-13 10:33:00,
2013-06-13 00:42:00,62.0,47.0,-100.00,ESE,109,17.0,33.0,58,0.00,,,0.00,0.000000,,2013-06-13 10:42:00,
2013-06-13 00:53:00,62.0,47.0,-100.00,ESE,109,17.0,33.0,58,0.00,,,0.00,0.000000,,2013-06-13 10:53:00,
2013-06-13 01:23:00,62.0,50.0,-100.00,ESE,112,11.0,35.0,65,0.00,,,0.00,0.000000,,2013-06-13 11:23:00,
2013-06-13 01:32:00,62.0,50.0,-100.00,ESE,112,11.0,35.0,65,0.00,,,0.00,0.000000,,2013-06-13 11:32:00,
2013-06-13 01:42:00,62.0,50.0,-100.00,ESE,112,11.0,35.0,65,0.00,,,0.00,0.000000,,2013-06-13 11:42:00,
2013-06-13 01:52:00,62.0,50.0,-100.00,ESE,112,11.0,35.0,65,0.00,,,0.00,0.000000,,2013-06-13 11:52:00,
2013-06-13 02:22:00,63.0,50.0,-100.00,SE,125,22.0,35.0,63,0.00,,,0.00,0.000000,,2013-06-13 12:22:00,
2013-06-13 02:34:00,63.0,50.0,-100.00,SE,125,22.0,35.0,63,0.00,,,0.00,0.000000,,2013-06-13 12:34:00,
2013-06-13 02:42:00,63.0,50.0,-100.00,SE,125,22.0,35.0,63,0.00,,,0.00,0.000000,,2013-06-13 12:42:00,
2013-06-13 02:52:00,63.0,50.0,-100.00,SE,125,22.0,35.0,63,0.00,,,0.00,0.000000,,2013-06-13 12:52:00,
2013-06-13 03:32:00,62.0,51.0,-100.00,South,177,9.0,33.0,68,0.00,,,0.00,0.000000,,2013-06-13 13:32:00,
2013-06-13 03:43:00,62.0,51.0,-100.00,South,177,9.0,33.0,68,0.00,,,0.00,0.000000,,2013-06-13 13:43:00,
2013-06-13 03:53:00,62.0,51.0,-100.00,South,177,9.0,33.0,68,0.00,,,0.00,0.000000,,2013-06-13 13:53:00,
2013-06-13 04:33:00,59.0,53.0,-100.00,SSE,160,6.0,21.0,81,0.00,,,0.00,0.000000,,2013-06-13 14:33:00,
2013-06-13 04:43:00,59.0,53.0,-100.00,SSE,160,6.0,21.0,81,0.00,,,0.00,0.000000,,2013-06-13 14:43:00,
2013-06-13 04:53:00,59.0,53.0,-100.00,SSE,160,6.0,21.0,81,0.00,,,0.00,0.000000,,2013-06-13 14:53:00,
2013-06-13 05:22:00,58.0,52.0,-100.00,ESE,111,10.0,14.0,81,0.00,,,0.00,0.000000,,2013-06-13 15:22:00,
2013-06-13 05:33:00,58.0,52.0,-100.00,ESE,111,10.0,14.0,81,0.00,,,0.00,0.000000,,2013-06-13 15:33:00,
2013-06-13 05:43:00,58.0,52.0,-100.00,ESE,111,10.0,14.0,81,0.00,,,0.00,0.000000,,2013-06-13 15:43:00,
2013-06-13 05:53:00,58.0,52.0,-100.00,ESE,111,10.0,14.0,81,0.00,,,0.00,0.000000,,2013-06-13 15:53:00,
2013-06-13 06:22:00,61.0,48.0,-100.00,ESE,108,18.0,30.0,63,0.00,,,0.00,3.000000,,2013-06-13 16:22:00,
2013-06-13 06:33:00,61.0,48.0,-100.00,ESE,108,18.0,30.0,63,0.00,,,0.00,3.000000,,2013-06-13 16:33:00,
2013-06-13 06:43:00,61.0,48.0,-100.00,ESE,108,18.0,30.0,63,0.00,,,0.00,3.000000,,2013-06-13 16:43:00,
2013-06-13 06:53:00,61.0,48.0,-100.00,ESE,108,18.0,30.0,63,0.00,,,0.00,3.000000,,2013-06-13 16:53:00,
2013-06-13 07:32:00,64.0,46.0,-100.00,ESE,118,19.0,34.0,52,0.00,,,0.00,115.000000,,2013-06-13 17:32:00,
2013-06-13 07:43:00,64.0,46.0,-100.00,ESE,118,19.0,34.0,52,0.00,,,0.00,115.000000,,2013-06-13 17:43:00,
2013-06-13 07:53:00,64.0,46.0,-100.00,ESE,118,19.0,34.0,52,0.00,,,0.00,115.000000,,2013-06-13 17:53:00,
2013-06-13 08:22:00,69.0,47.0,-100.00,SE,128,12.0,28.0,45,0.00,,,0.00,341.000000,,2013-06-13 18:22:00,
2013-06-13 08:33:00,69.0,47.0,-100.00,SE,128,12.0,28.0,45,0.00,,,0.00,341.000000,,2013-06-13 18:33:00,
2013-06-13 08:43:00,69.0,47.0,-100.00,SE,128,12.0,28.0,45,0.00,,,0.00,341.000000,,2013-06-13 18:43:00,
2013-06-13 08:52:00,69.0,47.0,-100.00,SE,128,12.0,28.0,45,0.00,,,0.00,341.000000,,2013-06-13 18:52:00,
2013-06-13 09:22:00,69.0,53.0,-100.00,NW,313,5.0,16.0,56,0.00,,,0.00,621.000000,,2013-06-13 19:22:00,
2013-06-13 09:32:00,69.0,53.0,-100.00,NW,313,5.0,16.0,56,0.00,,,0.00,621.000000,,2013-06-13 19:32:00,
2013-06-13 09:43:00,69.0,53.0,-100.00,NW,313,5.0,16.0,56,0.00,,,0.00,621.000000,,2013-06-13 19:43:00,
2013-06-13 09:53:00,69.0,53.0,-100.00,NW,313,5.0,16.0,56,0.00,,,0.00,621.000000,,2013-06-13 19:53:00,
2013-06-13 10:22:00,69.0,54.0,-100.00,NW,323,8.0,18.0,58,0.00,,,0.00,847.000000,,2013-06-13 20:22:00,
2013-06-13 10:32:00,69.0,54.0,-100.00,NW,323,8.0,18.0,58,0.00,,,0.00,847.000000,,2013-06-13 20:32:00,
2013-06-13 10:43:00,69.0,54.0,-100.00,NW,323,8.0,18.0,58,0.00,,,0.00,847.000000,,2013-06-13 20:43:00,
2013-06-13 10:53:00,69.0,54.0,-100.00,NW,323,8.0,18.0,58,0.00,,,0.00,847.000000,,2013-06-13 20:53:00,
2013-06-13 11:22:00,72.0,54.0,-100.00,WNW,282,10.0,22.0,53,0.00,,,0.00,967.000000,,2013-06-13 21:22:00,
2013-06-13 11:34:00,72.0,54.0,-100.00,WNW,282,10.0,22.0,53,0.00,,,0.00,967.000000,,2013-06-13 21:34:00,
2013-06-13 11:43:00,72.0,54.0,-100.00,WNW,282,10.0,22.0,53,0.00,,,0.00,967.000000,,2013-06-13 21:43:00,
2013-06-13 11:52:00,72.0,54.0,-100.00,WNW,282,10.0,22.0,53,0.00,,,0.00,967.000000,,2013-06-13 21:52:00,
2013-06-13 12:32:00,71.0,56.0,-100.00,NW,314,14.0,25.0,59,0.00,,,0.00,539.000000,,2013-06-13 22:32:00,
2013-06-13 12:42:00,71.0,56.0,-100.00,NW,314,14.0,25.0,59,0.00,,,0.00,539.000000,,2013-06-13 22:42:00,
2013-06-13 12:52:00,71.0,56.0,-100.00,NW,314,14.0,25.0,59,0.00,,,0.00,539.000000,,2013-06-13 22:52:00,
2013-06-13 13:22:00,72.0,58.0,-100.00,NW,305,13.0,23.0,61,0.00,,,0.00,459.000000,,2013-06-13 23:22:00,
2013-06-13 13:32:00,72.0,58.0,-100.00,NW,305,13.0,23.0,61,0.00,,,0.00,459.000000,,2013-06-13 23:32:00,
2013-06-13 13:43:00,72.0,58.0,-100.00,NW,305,13.0,23.0,61,0.00,,,0.00,459.000000,,2013-06-13 23:43:00,
2013-06-13 13:52:00,72.0,58.0,-100.00,NW,305,13.0,23.0,61,0.00,,,0.00,459.000000,,2013-06-13 23:52:00,
2013-06-13 14:22:00,74.0,59.0,-100.00,NW,313,11.0,24.0,59,0.00,,,0.00,684.000000,,2013-06-14 00:22:00,
2013-06-13 14:33:00,74.0,59.0,-100.00,NW,313,11.0,24.0,59,0.00,,,0.00,684.000000,,2013-06-14 00:33:00,
2013-06-13 14:43:00,74.0,59.0,-100.00,NW,313,11.0,24.0,59,0.00,,,0.00,684.000000,,2013-06-14 00:43:00,
2013-06-13 14:53:00,74.0,59.0,-100.00,NW,313,11.0,24.0,59,0.00,,,0.00,684.000000,,2013-06-14 00:53:00,
2013-06-13 15:22:00,72.0,57.0,-100.00,North,354,9.0,20.0,60,0.00,,,0.00,646.000000,,2013-06-14 01:22:00,
2013-06-13 15:32:00,72.0,57.0,-100.00,North,354,9.0,20.0,60,0.00,,,0.00,646.000000,,2013-06-14 01:32:00,
2013-06-13 15:43:00,72.0,57.0,-100.00,North,354,9.0,20.0,60,0.00,,,0.00,646.000000,,2013-06-14 01:43:00,
2013-06-13 15:52:00,72.0,57.0,-100.00,North,354,9.0,20.0,60,0.00,,,0.00,646.000000,,2013-06-14 01:52:00,
2013-06-13 16:22:00,71.0,56.0,-100.00,WNW,299,12.0,19.0,60,0.00,,,0.00,373.000000,,2013-06-14 02:22:00,
2013-06-13 16:32:00,71.0,56.0,-100.00,WNW,299,12.0,19.0,60,0.00,,,0.00,373.000000,,2013-06-14 02:32:00,
2013-06-13 16:43:00,71.0,56.0,-100.00,WNW,299,12.0,19.0,60,0.00,,,0.00,373.000000,,2013-06-14 02:43:00,
2013-06-13 16:52:00,71.0,56.0,-100.00,WNW,299,12.0,19.0,60,0.00,,,0.00,373.000000,,2013-06-14 02:52:00,
2013-06-13 17:22:00,69.0,55.0,-100.00,WNW,303,12.0,21.0,61,0.00,,,0.00,270.000000,,2013-06-14 03:22:00,
2013-06-13 17:34:00,69.0,55.0,-100.00,WNW,303,12.0,21.0,61,0.00,,,0.00,270.000000,,2013-06-14 03:34:00,
2013-06-13 17:43:00,69.0,55.0,-100.00,WNW,303,12.0,21.0,61,0.00,,,0.00,270.000000,,2013-06-14 03:43:00,
2013-06-13 17:52:00,69.0,55.0,-100.00,WNW,303,12.0,21.0,61,0.00,,,0.00,270.000000,,2013-06-14 03:52:00,
2013-06-13 18:22:00,69.0,58.0,-100.00,WNW,289,10.0,16.0,67,0.00,,,0.00,135.000000,,2013-06-14 04:22:00,
2013-06-13 18:33:00,69.0,58.0,-100.00,WNW,289,10.0,16.0,67,0.00,,,0.00,135.000000,,2013-06-14 04:33:00,
2013-06-13 18:43:00,69.0,58.0,-100.00,WNW,289,10.0,16.0,67,0.00,,,0.00,135.000000,,2013-06-14 04:43:00,
2013-06-13 18:53:00,69.0,58.0,-100.00,WNW,289,10.0,16.0,67,0.00,,,0.00,135.000000,,2013-06-14 04:53:00,
2013-06-13 19:22:00,64.0,56.0,-100.00,WSW,247,10.0,17.0,74,0.00,,,0.00,70.000000,,2013-06-14 05:22:00,
2013-06-13 19:33:00,64.0,56.0,-100.00,WSW,247,10.0,17.0,74,0.00,,,0.00,70.000000,,2013-06-14 05:33:00,
2013-06-13 19:43:00,64.0,56.0,-100.00,WSW,247,10.0,17.0,74,0.00,,,0.00,70.000000,,2013-06-14 05:43:00,
2013-06-13 19:52:00,64.0,56.0,-100.00,WSW,247,10.0,17.0,74,0.00,,,0.00,70.000000,,2013-06-14 05:52:00,
2013-06-13 20:22:00,61.0,60.0,-100.00,North,353,2.0,15.0,95,0.00,,,0.00,3.000000,,2013-06-14 06:22:00,
2013-06-13 20:33:00,61.0,60.0,-100.00,North,353,2.0,15.0,95,0.00,,,0.00,3.000000,,2013-06-14 06:33:00,
2013-06-13 20:43:00,61.0,60.0,-100.00,North,353,2.0,15.0,95,0.00,,,0.00,3.000000,,2013-06-14 06:43:00,
2013-06-13 20:52:00,61.0,60.0,-100.00,North,353,2.0,15.0,95,0.00,,,0.00,3.000000,,2013-06-14 06:52:00,
2013-06-13 21:33:00,61.0,48.0,-100.00,ESE,117,23.0,38.0,63,0.00,,,0.00,0.000000,,2013-06-14 07:33:00,
2013-06-13 21:43:00,61.0,48.0,-100.00,ESE,117,23.0,38.0,63,0.00,,,0.00,0.000000,,2013-06-14 07:43:00,
2013-06-13 21:53:00,61.0,48.0,-100.00,ESE,117,23.0,38.0,63,0.00,,,0.00,0.000000,,2013-06-14 07:53:00,
2013-06-13 22:22:00,61.0,47.0,-100.00,ESE,116,16.0,37.0,61,0.00,,,0.00,0.000000,,2013-06-14 08:22:00,
2013-06-13 22:33:00,61.0,47.0,-100.00,ESE,116,16.0,37.0,61,0.00,,,0.00,0.000000,,2013-06-14 08:33:00,
2013-06-13 22:43:00,61.0,47.0,-100.00,ESE,116,16.0,37.0,61,0.00,,,0.00,0.000000,,2013-06-14 08:43:00,
2013-06-13 22:53:00,61.0,47.0,-100.00,ESE,116,16.0,37.0,61,0.00,,,0.00,0.000000,,2013-06-14 08:53:00,
2013-06-13 23:22:00,63.0,49.0,-100.00,SE,128,14.0,28.0,60,0.00,,,0.00,0.000000,,2013-06-14 09:22:00,
2013-06-13 23:33:00,63.0,49.0,-100.00,SE,128,14.0,28.0,60,0.00,,,0.00,0.000000,,2013-06-14 09:33:00,
2013-06-13 23:43:00,63.0,49.0,-100.00,SE,128,14.0,28.0,60,0.00,,,0.00,0.000000,,2013-06-14 09:43:00,
2013-06-13 23:52:00,63.0,49.0,-100.00,SE,128,14.0,28.0,60,0.00,,,0.00,0.000000,,2013-06-14 09:52:00,